Flag for U.S.A. Weather past 2 weeks in Vevay, Indiana, U.S.A.

Now
76 °F

More clouds than sun.


Feels Like: 76 °F
Forecast: 74 / 93 °F
Wind: 3 mph from West

Location: Cincinnati / Northern Kentucky International Airport

Current Time: Aug 22, 2014 at 10:17:53 AM

Latest Report: Aug 22, 2014 at 9:52 AM


Visibility: 9 mi

Pressure: 30.01 "Hg

Humidity: 88%

Dew point: 72 °F

Location of VevayLocation

Historic Weather in Vevay — Graph

°F

Vevay temperature yesterday

Maximum temperature yesterday: 83 °F (at 5:52 PM)
Minimum temperature yesterday: 68 °F (at 2:52 AM)
Average temperature yesterday: 75 °F

Past Weeks' High & Low Weather Summary

 TemperatureHumidityPressure
High86 °F (Aug 19, 2:52 PM)97% (Aug 19, 9:52 AM)30.09 "Hg (Aug 19, 9:52 AM)
Low52 °F (Aug 16, 3:52 AM)27% (Aug 15, 3:52 PM)29.78 "Hg (Aug 18, 6:52 PM)
Average73 °F73%29.95 "Hg
* Reported Aug 7 8:52 AM — Aug 22 8:52 AM, Vevay, Weather by CustomWeather, © 2014

Note: Actual official high and low records may vary slightly from our data, if they occured in-between our weather recording intervals... More about our weather records

Advertising

Vevay weather history for previous 24 hours

 ConditionsComfort  
Time TempWeatherWind HumidityBarometerVisibility
8:52 AM
Aug 22
75 °FOvercast.No wind90%29.99 "Hg7 mi
7:52 AM74 °FMostly cloudy.6 mph91%29.97 "Hg7 mi
6:52 AM73 °FPassing clouds.6 mph90%29.97 "Hg7 mi
5:52 AM70 °FFog.7 mph93%29.96 "Hg5 mi
4:52 AM70 °FFog.5 mph93%29.96 "Hg5 mi
3:52 AM71 °FFog.7 mph93%29.97 "Hg6 mi
2:52 AM71 °FMostly cloudy.No wind93%29.98 "Hg7 mi
1:59 AM72 °FLight rain. Overcast.3 mph94%30.04 "Hg10 mi
1:01 AM73 °FHeavy rain. Mostly cloudy.18 mph83%30.07 "Hg1 mi
11:52 PM
Aug 21
77 °FHigh level clouds.No wind88%30.02 "Hg7 mi
10:52 PM76 °FHigh level clouds.5 mph88%30.00 "Hg8 mi
9:52 PM76 °FPartly cloudy.5 mph88%29.98 "Hg8 mi
8:52 PM79 °FPartly sunny.3 mph84%29.98 "Hg8 mi
7:52 PM80 °FPartly sunny.5 mph81%29.98 "Hg8 mi
6:52 PM83 °FScattered clouds.7 mph74%29.98 "Hg7 mi
5:52 PM83 °FScattered clouds.8 mph72%29.99 "Hg8 mi
4:52 PM81 °FBroken clouds.6 mph77%30.01 "Hg9 mi
3:52 PM81 °FMostly cloudy.8 mph74%30.02 "Hg8 mi
2:52 PM80 °FPartly sunny.8 mph79%30.04 "Hg8 mi
1:52 PM76 °FMostly cloudy.7 mph91%30.06 "Hg8 mi
12:52 PM74 °FMostly cloudy.3 mph91%30.07 "Hg8 mi
11:52 AM73 °FMore clouds than sun.8 mph90%30.06 "Hg7 mi
11:02 AM72 °FLight rain. Mostly cloudy.No wind94%30.09 "Hg7 mi
10:52 AM72 °FThunderstorms. Fog.9 mph91%30.06 "Hg4 mi
Weather by CustomWeather, © 2014

See weather overviewHow to use our weather pages